Kansas City International, MO

9:43 AM CDT on September 18, 2019 (GMT -0500)
Kansas City International

Weather History for KMCI - July, 2019

Change the Weather History Date:

Tuesday, July 23, 2019

  Actual Average Record
Temperature  
Mean Temperature 69 °F 79 °F  
Max Temperature 81 °F 89 °F 106 °F (1934)
Min Temperature 57 °F 69 °F 57 °F (1990)
Degree Days  
Heating Degree Days 0 0  
Month to date heating degree days 0 0  
Since 1 June heating degree days 0 9  
Since 1 July heating degree days 0 0  
Cooling Degree Days 4 14  
Month to date cooling degree days 322 307  
Year to date cooling degree days 692 689  
Since 1 June cooling degree days 594 573  
Growing Degree Days 19 (Base 50)    
Moisture  
Dew Point 56 °F    
Average Humidity 66    
Maximum Humidity 87    
Minimum Humidity 45    
Precipitation  
Precipitation 0.00 in 0.13 in 1.90 in (1973)
Month to date precipitation 2.16 3.47  
Year to date precipitation 34.06 22.53  
Snow  
Snow 0.00 in 0.00 in 0.00 in ()
Month to date snowfall 0.0 0.0  
Since 1 June snowfall 0.0 0.0  
Since 1 July snowfall 0.0 0.0  
Snow Depth 0.00 in    
Sea Level Pressure  
Sea Level Pressure 30.22 in    
Wind  
Wind Speed 6 mph (North)    
Max Wind Speed 14 mph    
Max Gust Speed 21 mph    
Visibility 10 miles    
Events      
T = Trace of Precipitation, MM = Missing Value Source: NWS Daily Summary

Daily Weather History Graph

Daily Weather History Graph

Search for Another Location

Airport or City:

Astronomy

Jul. 23, 2019 Rise Set
Actual Time 6:10 AM CDT 8:39 PM CDT
Civil Twilight 5:40 AM CDT 9:09 PM CDT
Nautical Twilight 5:02 AM CDT 9:47 PM CDT
Astronomical Twilight 4:19 AM CDT 10:30 PM CDT
Moon 12:03 AM CDT (7/23) 12:23 PM CDT (7/23)
Length of Visible Light 15h 29m
Length of Day
14h 28m
Waning Gibbous, 63% of the Moon is Illuminated
Jul 23
Waning Gibbous
Jul 24
Last Quarter
Jul 31
New
Aug 7
First Quarter
Aug 15
Full

Hourly Weather History & Observations

Time (CDT) Temp. Dew Point Humidity Pressure Visibility Wind Dir Wind Speed Gust Speed Precip Events Conditions
12:53 AM 62.1 °F 57.0 °F 84% 30.21 in 10.0 mi North 6.9 mph - N/A   Clear
1:53 AM 61.0 °F 55.9 °F 83% 30.22 in 10.0 mi NNW 8.1 mph - N/A   Clear
2:53 AM 60.1 °F 55.9 °F 86% 30.22 in 10.0 mi NNW 6.9 mph - N/A   Clear
3:53 AM 60.1 °F 55.0 °F 83% 30.22 in 10.0 mi North 6.9 mph - N/A   Clear
4:53 AM 59.0 °F 55.0 °F 87% 30.22 in 10.0 mi North 6.9 mph - N/A   Clear
5:53 AM 57.9 °F 54.0 °F 87% 30.23 in 10.0 mi North 6.9 mph - N/A   Partly Cloudy
6:53 AM 59.0 °F 55.0 °F 87% 30.25 in 10.0 mi North 5.8 mph - N/A   Partly Cloudy
7:53 AM 63.0 °F 57.0 °F 81% 30.25 in 10.0 mi NNE 5.8 mph - N/A   Partly Cloudy
8:53 AM 68.0 °F 57.9 °F 70% 30.26 in 10.0 mi NNE 8.1 mph - N/A   Partly Cloudy
9:53 AM 72.0 °F 57.9 °F 61% 30.26 in 10.0 mi North 5.8 mph - N/A   Partly Cloudy
10:53 AM 75.0 °F 55.9 °F 51% 30.26 in 10.0 mi NNW 4.6 mph - N/A   Partly Cloudy
11:53 AM 75.9 °F 55.9 °F 50% 30.25 in 10.0 mi NE 9.2 mph - N/A   Partly Cloudy
12:53 PM 77.0 °F 55.0 °F 47% 30.24 in 10.0 mi ENE 5.8 mph - N/A   Partly Cloudy
1:53 PM 78.1 °F 55.0 °F 45% 30.22 in 10.0 mi North 9.2 mph - N/A   Partly Cloudy
2:53 PM 79.0 °F 55.9 °F 45% 30.21 in 10.0 mi NE 10.4 mph 18.4 mph N/A   Partly Cloudy
3:53 PM 79.0 °F 57.0 °F 47% 30.20 in 10.0 mi NNE 9.2 mph - N/A   Scattered Clouds
4:53 PM 79.0 °F 55.9 °F 45% 30.18 in 10.0 mi Variable 3.5 mph - N/A   Partly Cloudy
5:53 PM 79.0 °F 57.0 °F 47% 30.17 in 10.0 mi North 6.9 mph - N/A   Scattered Clouds
6:53 PM 75.9 °F 57.0 °F 52% 30.17 in 10.0 mi NNE 5.8 mph - N/A   Partly Cloudy
8:53 PM 72.0 °F 59.0 °F 64% 30.17 in 10.0 mi North 3.5 mph - N/A   Scattered Clouds
9:53 PM 72.0 °F 57.0 °F 59% 30.17 in 10.0 mi North 4.6 mph - N/A   Mostly Cloudy
10:53 PM 71.1 °F 57.9 °F 63% 30.18 in 10.0 mi Calm Calm - N/A   Mostly Cloudy
11:53 PM 69.1 °F 57.0 °F 65% 30.19 in 10.0 mi Calm Calm - N/A   Partly Cloudy